User: anonymous   Login
Location: Unspecified
(0.0000°N, 0.0000°E)
Time: 14:15:46
(UTC+00:00)
Language:

GEOEYE 1 - Orbit

View from above orbital plane
View from above orbital plane
View from above satellite
View from above satellite

Ground track
Ground track

The orbit data is extracted from the following two-line orbital elements,

1 33331U 08042A   14356.10432588  .00001103  00000-0  21787-3 0  9169
2 33331 098.1278 068.6641 0008648 232.9328 127.1108 14.64345928336217
Epoch (UTC): 22 December 2014 02:30:13
Eccentricity: 0.0008648
inclination: 98.1278°
perigee height: 673 km
apogee height: 685 km
right ascension of ascending node: 68.6641°
argument of perigee: 232.9328°
revolutions per day: 14.64345928
mean anomaly at epoch: 127.1108°
orbit number at epoch: 33621

The dashed part of the orbit path shows where the satellite is in the earth's shadow,  

DLR